Regional Weather Roundup
Issued by NWS

Home | Current Version | Previous Version | Graphics & Text | Print | Product List | Glossary On
Versions: 1 2 3 4 5 6 7 8 9 10 11 12 13 14 15 16 17 18 19 20 21 22 23 24 25 26 27
000
ASUS45 KBOU 201306
RWRCO

WEATHER ROUNDUP FOR COLORADO
NATIONAL WEATHER SERVICE DENVER/BOULDER CO
700 AM MDT SUN APR 20 2014

NOTE: "FAIR" INDICATES FEW OR NO CLOUDS BELOW 12000 FEET WITH NO
SIGNIFICANT WEATHER AND/OR OBSTRUCTIONS TO VISIBILITY.

COZ001>005-013-030-031-201400-
...NORTHWEST COLORADO...

CITY           SKY/WX    TMP DP  RH WIND       PRES   REMARKS
CRAIG          MOCLDY    34  32  92 CALM      30.16R
HAYDEN         MOCLDY    37  34  87 SE9       30.18R
MEEKER         CLOUDY    39  34  82 CALM      30.17R
MOUNT WERNER   CLEAR     36  32  87 W8        30.29R
STEAMBOAT SPGS CLEAR     33  32  94 CALM      30.18R
WALDEN         CLEAR     30  27  86 SE6       30.20R WCI  24
$$

COZ006>008-011-201400-
...WEST CENTRAL VALLEYS...

CITY           SKY/WX    TMP DP  RH WIND       PRES   REMARKS
GRAND JUNCTION CLEAR     41  38  89 E5        30.11R
MONTROSE       CLEAR     41  36  82 SE6       30.16R
EAGLE          PTCLDY    37  37 100 CALM      30.20R
RIFLE          PTCLDY    38  34  85 CALM      30.16R
DELTA          CLEAR     43  37  79 CALM      30.14R
NUCLA            N/A     41  36  81 CALM      30.19R
$$

COZ017>023-064>068-201400-
...SOUTHWEST COLORADO...

CITY           SKY/WX    TMP DP  RH WIND       PRES   REMARKS
DURANGO        PTCLDY    33  30  88 NE3       30.13R
CORTEZ         CLEAR     36  33  89 E8        30.14R
PAGOSA SPRINGS PTCLDY    33  32  98 CALM      30.17S
TELLURIDE      PTCLDY    36  32  87 CALM      30.23R
WOLF CREEK PAS MOCLDY    30  27  86 N5        30.29R WCI  25
$$

COZ009-010-012-014-032>034-037-058>063-201400-
...CENTRAL COLORADO...

CITY           SKY/WX    TMP DP  RH WIND       PRES   REMARKS
ASPEN          MOCLDY    40  33  76 CALM      30.19R
BUENA VISTA    MOCLDY    37  33  86 CALM      30.18R
COPPER MTN     SNOW      34  30  86 W16       30.31S VSB<1/4 WCI  23
BERTHOUD PASS  HAZE      27  18  69 NW12      30.33S VSB<1/4 WCI  16
COTTONWOOD PAS MOCLDY    39  30  70 NW5       30.23R
GUNNISON       MOCLDY    30  25  80 CALM      30.23R
KREMMLING      MOCLDY    32  32 100 CALM      30.22R
LEADVILLE      CLOUDY    31  29  92 NE5       30.23R WCI  26
MONARCH PASS   FOG       28  28 100 W17       30.38S VSB<1/4 WCI  16
SALIDA         MOCLDY    40  36  87 W7        30.24S
SUNLIGHT       PTCLDY    36  32  87 CALM      30.31R
WILKERSON PASS PTCLDY    30  28  93 NW12G17   30.28S WCI  21
$$

COZ069>075-201400-
...SAN LUIS VALLEY/SANGRE DE CRISTO MOUNTAINS...

CITY           SKY/WX    TMP DP  RH WIND       PRES   REMARKS
ALAMOSA        CLOUDY    41  38  89 E3        30.14R
LA VETA PASS   NOT AVBL
SAGUACHE       CLOUDY    43  34  70 NW14      30.16R
$$

COZ035-036-038>040-201400-
...NORTHERN COLORADO FRONT RANGE...

CITY           SKY/WX    TMP DP  RH WIND       PRES   REMARKS
DENVER INTL AP PTCLDY    43  38  82 S7        30.05R
DMNS CITY PARK   N/A     47  39  75 S3        30.06R
AURORA         MOCLDY    43  37  81 S8        30.06R
FRONT RANGE AP NOT AVBL
ERIE MUNI ARPT PTCLDY    40  39  97 CALM      30.05R
BOULDER MUN AP PTCLDY    45  41  87 CALM      30.05R
CENTENNIAL     MOCLDY    46  37  71 W8        30.06R
BROOMFIELD     PTCLDY    46  39  76 NW3       30.06R
FORT COLLINS   CLEAR     43  37  81 CALM      30.06R
LONGMONT       CLEAR     42  40  92 SW3       30.06S
$$

COZ041-046-047-076>085-087-088-201400-
...PIKES PEAK/PALMER DIVIDE AND SOUTHERN FOOTHILLS...

CITY           SKY/WX    TMP DP  RH WIND       PRES   REMARKS
COLO. SPRINGS  CLOUDY    47  36  65 NE6       30.07R
A. F. ACADEMY  MOCLDY    44  37  75 NW2       30.08R
ELLICOTT       NOT AVBL
FALCON         CLOUDY    46  33  62 N6        30.10R
FORT CARSON    CLOUDY    47  37  69 N3        30.05R
LIMON          CLOUDY    43  40  89 N8        30.04R
MONUMENT HILL  CLOUDY    41  34  75 W3        30.10R
TRINIDAD       LGT RAIN  50  44  80 N5        30.07R
$$

COZ042>045-048>051-090-091-201400-
...NORTHEAST COLORADO...

CITY           SKY/WX    TMP DP  RH WIND       PRES   REMARKS
GREELEY ARPT   CLEAR     37  34  87 NW5       30.05R
AKRON          CLOUDY    43  39  86 SE3       30.04R
BURLINGTON     CLOUDY    46  43  89 N3        30.01R FOG
WRAY           MOCLDY   N/A N/A N/A W5        30.01S
STERLING       CLOUDY    37  36  93 S5        30.02R
HOLYOKE        MOCLDY    43  39  87 N5        30.03R
FORT MORGAN    CLOUDY    40  37  91 S3        30.04R
$$

COZ086-089-092>099-201400-
...SOUTHEAST COLORADO...

CITY           SKY/WX    TMP DP  RH WIND       PRES   REMARKS
PUEBLO         CLOUDY    54  42  64 W8        30.02R
LA JUNTA       CLOUDY    56  43  61 W6        30.00R
LAMAR          CLOUDY    49  45  86 NW5       29.94R
SPRINGFIELD      N/A     53  45  74 W14       29.99R
$$



USA.gov is the U.S. government's official web portal to all federal, state and local government web resources and services.